Radiation Dose at Monitoring Post of Fukushima Daini Nuclear Power Station
Date,Time,MP-1(microSv/h),MP-2(microSv/h),MP-3(microSv/h),MP-4(microSv/h),MP-5(microSv/h),MP-6(microSv/h),MP-7(microSv/h),Wind Direction,Wind Velocity(m/s),Rain
2018/03/02,00:00,0.325,0.203,0.330,0.315,0.302,0.166,0.100,west,9.3,No
2018/03/02,00:10,0.325,0.203,0.331,0.314,0.303,0.166,0.100,west-northwest,10.4,Yes
2018/03/02,00:20,0.326,0.204,0.332,0.315,0.304,0.166,0.100,west-northwest,10.1,Yes
2018/03/02,00:30,0.328,0.202,0.332,0.316,0.303,0.167,0.100,west,9.5,Yes
2018/03/02,00:40,0.327,0.203,0.331,0.314,0.303,0.167,0.099,west,9.3,Yes
2018/03/02,00:50,0.327,0.203,0.332,0.314,0.303,0.167,0.100,west,10.0,No
2018/03/02,01:00,0.326,0.204,0.330,0.315,0.305,0.167,0.100,west-northwest,8.5,No
2018/03/02,01:10,0.328,0.202,0.332,0.316,0.304,0.167,0.100,west,8.2,No
2018/03/02,01:20,0.327,0.204,0.332,0.314,0.304,0.168,0.100,west,10.0,Yes
2018/03/02,01:30,0.328,0.203,0.332,0.316,0.303,0.167,0.101,west,8.2,No
2018/03/02,01:40,0.327,0.203,0.332,0.314,0.305,0.167,0.100,west,8.6,No
2018/03/02,01:50,0.325,0.203,0.332,0.315,0.303,0.167,0.101,west,9.8,Yes
2018/03/02,02:00,0.330,0.203,0.332,0.316,0.304,0.168,0.102,west,7.9,Yes
2018/03/02,02:10,0.329,0.205,0.333,0.317,0.304,0.167,0.101,west,6.9,Yes
2018/03/02,02:20,0.328,0.204,0.333,0.315,0.304,0.168,0.102,west,7.9,No
2018/03/02,02:30,0.328,0.205,0.333,0.315,0.303,0.169,0.102,west,5.2,No
2018/03/02,02:40,0.327,0.204,0.332,0.316,0.304,0.168,0.100,west,6.7,No
2018/03/02,02:50,0.327,0.203,0.332,0.315,0.302,0.167,0.100,west,8.3,Yes
2018/03/02,03:00,0.329,0.204,0.333,0.314,0.303,0.168,0.101,west,7.7,Yes
2018/03/02,03:10,0.326,0.204,0.333,0.315,0.303,0.168,0.101,west-northwest,6.5,Yes
2018/03/02,03:20,0.327,0.205,0.333,0.316,0.303,0.167,0.101,west,8.6,Yes
2018/03/02,03:30,0.327,0.204,0.332,0.315,0.303,0.168,0.100,west,8.9,No
2018/03/02,03:40,0.328,0.204,0.332,0.315,0.304,0.168,0.101,west,10.3,Yes
2018/03/02,03:50,0.328,0.205,0.333,0.315,0.304,0.168,0.100,west,12.0,No
2018/03/02,04:00,0.327,0.203,0.332,0.314,0.303,0.167,0.101,west,11.2,No
2018/03/02,04:10,0.328,0.205,0.332,0.314,0.303,0.168,0.101,west,9.5,No
2018/03/02,04:20,0.327,0.204,0.332,0.316,0.304,0.168,0.101,west,8.4,No
2018/03/02,04:30,0.327,0.204,0.332,0.316,0.303,0.167,0.100,west,9.6,No
2018/03/02,04:40,0.327,0.203,0.332,0.315,0.303,0.168,0.101,west,9.8,No
2018/03/02,04:50,0.327,0.204,0.330,0.315,0.303,0.167,0.100,west,11.7,No
2018/03/02,05:00,0.327,0.202,0.330,0.315,0.303,0.166,0.100,west,11.4,No
2018/03/02,05:10,0.327,0.203,0.331,0.314,0.302,0.167,0.100,west-southwest,10.3,No
2018/03/02,05:20,0.328,0.203,0.332,0.314,0.304,0.166,0.100,west,10.6,No
2018/03/02,05:30,0.329,0.203,0.333,0.314,0.303,0.167,0.100,west,8.6,No
2018/03/02,05:40,0.327,0.203,0.333,0.314,0.303,0.167,0.100,west,8.4,No
2018/03/02,05:50,0.327,0.203,0.331,0.314,0.304,0.166,0.100,west,8.7,No
2018/03/02,06:00,0.327,0.203,0.332,0.314,0.303,0.167,0.100,west,10.3,No
2018/03/02,06:10,0.327,0.202,0.331,0.315,0.303,0.166,0.099,west,10.3,No
2018/03/02,06:20,0.326,0.203,0.331,0.313,0.302,0.167,0.099,west,10.0,No
2018/03/02,06:30,0.326,0.203,0.333,0.315,0.303,0.166,0.101,west,8.1,No
2018/03/02,06:40,0.325,0.203,0.331,0.314,0.302,0.166,0.100,west,9.2,No
2018/03/02,06:50,0.327,0.202,0.329,0.315,0.302,0.166,0.101,west,9.8,No
2018/03/02,07:00,0.328,0.203,0.330,0.314,0.301,0.167,0.100,west-northwest,9.2,No
2018/03/02,07:10,0.326,0.203,0.331,0.314,0.302,0.167,0.100,west-northwest,6.0,No
2018/03/02,07:20,0.327,0.203,0.331,0.314,0.302,0.166,0.100,west,7.4,No
2018/03/02,07:30,0.327,0.203,0.331,0.313,0.302,0.167,0.099,west,9.5,No
2018/03/02,07:40,0.327,0.202,0.330,0.314,0.302,0.167,0.099,west,8.1,No
2018/03/02,07:50,0.326,0.202,0.332,0.314,0.302,0.166,0.099,west-northwest,7.3,No
2018/03/02,08:00,0.328,0.202,0.330,0.312,0.301,0.166,0.100,west-northwest,9.2,No
2018/03/02,08:10,0.327,0.203,0.332,0.313,0.301,0.166,0.099,west-northwest,9.5,No
2018/03/02,08:20,0.327,0.202,0.332,0.312,0.300,0.167,0.100,west,11.2,No
2018/03/02,08:30,0.327,0.202,0.331,0.314,0.304,0.166,0.100,northwest,8.5,No
2018/03/02,08:40,0.326,0.202,0.331,0.313,0.303,0.166,0.100,west-northwest,8.1,No
2018/03/02,08:50,0.328,0.201,0.333,0.315,0.304,0.166,0.099,west-northwest,12.0,No
2018/03/02,09:00,0.327,0.203,0.333,0.314,0.301,0.166,0.098,west-northwest,9.2,No
2018/03/02,09:10,0.327,0.202,0.332,0.313,0.302,0.167,0.099,west-northwest,8.8,No
2018/03/02,09:20,0.327,0.201,0.331,0.314,0.303,0.166,0.099,west,10.9,No
2018/03/02,09:30,0.326,0.201,0.332,0.313,0.301,0.167,0.098,west-northwest,12.6,No
2018/03/02,09:40,0.326,0.202,0.332,0.314,0.303,0.167,0.099,west,10.4,No
2018/03/02,09:50,0.325,0.201,0.332,0.314,0.304,0.165,0.099,west-northwest,12.3,No
2018/03/02,10:00,0.327,0.201,0.332,0.314,0.303,0.167,0.099,west-northwest,9.8,No
2018/03/02,10:10,0.326,0.201,0.331,0.312,0.302,0.165,0.099,west-northwest,12.3,No
2018/03/02,10:20,0.326,0.203,0.331,0.314,0.302,0.167,0.099,west-northwest,13.1,No
2018/03/02,10:30,0.325,0.202,0.330,0.314,0.302,0.166,0.099,west-northwest,14.2,No
2018/03/02,10:40,0.325,0.202,0.332,0.313,0.303,0.166,0.099,west-northwest,15.4,No
2018/03/02,10:50,0.324,0.202,0.332,0.314,0.301,0.166,0.100,west-northwest,15.3,No
2018/03/02,11:00,0.326,0.201,0.332,0.313,0.302,0.166,0.100,west,12.3,No
2018/03/02,11:10,0.326,0.202,0.333,0.314,0.303,0.167,0.099,west-northwest,10.6,No
2018/03/02,11:20,0.327,0.202,0.334,0.315,0.302,0.167,0.099,west,14.7,No
2018/03/02,11:30,0.328,0.202,0.333,0.315,0.303,0.167,0.100,west-northwest,9.3,No
2018/03/02,11:40,0.327,0.203,0.332,0.313,0.302,0.167,0.099,west-northwest,17.3,No
2018/03/02,11:50,0.327,0.202,0.331,0.314,0.301,0.168,0.099,west-northwest,13.4,No
2018/03/02,12:00,0.328,0.202,0.333,0.314,0.302,0.166,0.100,west-northwest,13.4,No
2018/03/02,12:10,0.327,0.202,0.333,0.313,0.303,0.166,0.099,west,15.8,No
2018/03/02,12:20,0.327,0.202,0.334,0.315,0.302,0.167,0.099,west,12.5,No
2018/03/02,12:30,0.327,0.203,0.332,0.314,0.304,0.167,0.099,west-northwest,14.2,No
2018/03/02,12:40,0.328,0.203,0.333,0.315,0.304,0.166,0.099,-,CALM,No
2018/03/02,12:50,0.327,0.202,0.333,0.315,0.303,0.167,0.099,west-northwest,12.3,No
2018/03/02,13:00,0.327,0.203,0.331,0.315,0.304,0.166,0.100,west-northwest,14.2,No
2018/03/02,13:10,0.328,0.203,0.332,0.314,0.304,0.166,0.099,west-northwest,14.9,No
2018/03/02,13:20,0.328,0.202,0.332,0.315,0.303,0.167,0.100,west-northwest,11.5,No
2018/03/02,13:30,0.326,0.203,0.333,0.314,0.303,0.166,0.100,northwest,13.4,No
2018/03/02,13:40,0.328,0.203,0.332,0.315,0.305,0.167,0.100,northwest,11.2,No
2018/03/02,13:50,0.326,0.202,0.333,0.317,0.303,0.168,0.099,west-northwest,8.4,No
2018/03/02,14:00,0.328,0.203,0.333,0.314,0.305,0.168,0.100,north-northwest,10.3,No
2018/03/02,14:10,0.327,0.203,0.333,0.315,0.304,0.167,0.099,west-northwest,8.8,No
2018/03/02,14:20,0.328,0.202,0.334,0.313,0.303,0.166,0.100,northwest,7.6,No
2018/03/02,14:30,0.329,0.202,0.335,0.315,0.304,0.167,0.101,northwest,5.9,No
2018/03/02,14:40,0.329,0.204,0.334,0.316,0.305,0.167,0.100,west-northwest,7.7,No
2018/03/02,14:50,0.329,0.203,0.334,0.317,0.305,0.167,0.101,west,8.3,No
2018/03/02,15:00,0.330,0.204,0.334,0.316,0.304,0.167,0.100,west-southwest,12.9,No
2018/03/02,15:10,0.330,0.203,0.334,0.317,0.305,0.167,0.100,west,7.5,No
2018/03/02,15:20,0.328,0.204,0.334,0.317,0.304,0.167,0.100,west-southwest,0.9,No
2018/03/02,15:30,0.329,0.204,0.334,0.316,0.304,0.167,0.101,north,0.8,No
2018/03/02,15:40,0.328,0.204,0.334,0.316,0.305,0.167,0.099,east-southeast,3.6,No
2018/03/02,15:50,0.330,0.205,0.334,0.316,0.307,0.168,0.101,south,6.2,No
2018/03/02,16:00,0.328,0.204,0.333,0.316,0.305,0.168,0.100,northeast,1.5,No
2018/03/02,16:10,0.329,0.205,0.333,0.317,0.303,0.168,0.100,north,2.4,No
2018/03/02,16:20,0.329,0.204,0.335,0.314,0.305,0.167,0.100,northeast,0.9,No
2018/03/02,16:30,0.330,0.203,0.333,0.317,0.303,0.167,0.100,west-northwest,2.7,No
2018/03/02,16:40,0.328,0.205,0.333,0.317,0.304,0.167,0.100,west-northwest,4.2,No
2018/03/02,16:50,0.329,0.204,0.332,0.317,0.304,0.167,0.100,west-northwest,2.9,No
2018/03/02,17:00,0.330,0.203,0.335,0.316,0.304,0.168,0.100,west-northwest,5.9,No
2018/03/02,17:10,0.329,0.204,0.334,0.316,0.303,0.168,0.101,west,10.6,No
2018/03/02,17:20,0.328,0.203,0.333,0.317,0.303,0.167,0.100,west-northwest,9.5,No
2018/03/02,17:30,0.330,0.203,0.334,0.318,0.303,0.168,0.101,north-northwest,2.3,No
2018/03/02,17:40,0.330,0.204,0.334,0.317,0.304,0.167,0.101,west-northwest,9.2,No
2018/03/02,17:50,0.329,0.205,0.335,0.317,0.303,0.167,0.100,west-northwest,9.8,No
2018/03/02,18:00,0.329,0.204,0.334,0.317,0.304,0.167,0.100,west,4.4,No
2018/03/02,18:10,0.328,0.204,0.334,0.316,0.306,0.169,0.101,west,6.2,No
2018/03/02,18:20,0.329,0.204,0.332,0.316,0.305,0.168,0.099,west,2.0,No
2018/03/02,18:30,0.330,0.203,0.334,0.317,0.305,0.168,0.100,northwest,2.1,No
2018/03/02,18:40,0.330,0.205,0.335,0.316,0.304,0.167,0.100,north-northwest,2.3,No
2018/03/02,18:50,0.329,0.203,0.335,0.316,0.305,0.167,0.101,southwest,1.9,No
2018/03/02,19:00,0.331,0.203,0.334,0.318,0.305,0.167,0.101,west-southwest,1.1,No
2018/03/02,19:10,0.330,0.205,0.333,0.316,0.304,0.167,0.101,north-northwest,0.6,No
2018/03/02,19:20,0.329,0.204,0.334,0.315,0.305,0.166,0.100,north-northeast,0.8,No
2018/03/02,19:30,0.330,0.204,0.334,0.315,0.303,0.168,0.100,south-southeast,1.8,No
2018/03/02,19:40,0.329,0.203,0.334,0.318,0.304,0.167,0.100,south,1.6,No
2018/03/02,19:50,0.329,0.204,0.333,0.316,0.302,0.168,0.100,west-southwest,1.3,No
2018/03/02,20:00,0.329,0.203,0.334,0.316,0.302,0.168,0.101,south-southwest,1.7,No
2018/03/02,20:10,0.329,0.204,0.333,0.316,0.303,0.168,0.100,west-southwest,2.2,No
2018/03/02,20:20,0.329,0.203,0.332,0.316,0.300,0.168,0.100,south-southwest,2.3,No
2018/03/02,20:30,0.329,0.203,0.332,0.316,0.302,0.168,0.100,southwest,3.5,No
2018/03/02,20:40,0.328,0.204,0.334,0.317,0.302,0.168,0.100,southwest,2.6,No
2018/03/02,20:50,0.328,0.203,0.334,0.317,0.303,0.167,0.101,north-northwest,0.6,No
2018/03/02,21:00,0.328,0.203,0.334,0.317,0.301,0.167,0.100,west-southwest,2.5,No
2018/03/02,21:10,0.330,0.205,0.334,0.316,0.301,0.167,0.100,west-southwest,4.1,No
2018/03/02,21:20,0.330,0.204,0.334,0.316,0.302,0.168,0.101,west-southwest,1.1,No
2018/03/02,21:30,0.329,0.204,0.333,0.317,0.303,0.167,0.100,-,CALM,No
2018/03/02,21:40,0.330,0.204,0.334,0.317,0.302,0.167,0.100,southwest,4.4,No
2018/03/02,21:50,0.328,0.203,0.333,0.317,0.305,0.168,0.100,southwest,2.2,No
2018/03/02,22:00,0.328,0.204,0.334,0.316,0.302,0.167,0.100,south-southwest,2.3,No
2018/03/02,22:10,0.328,0.204,0.333,0.317,0.300,0.167,0.100,west-southwest,1.8,No
2018/03/02,22:20,0.328,0.203,0.332,0.317,0.301,0.167,0.100,west-southwest,3.2,No
2018/03/02,22:30,0.330,0.203,0.334,0.316,0.302,0.168,0.101,west,2.5,No
2018/03/02,22:40,0.328,0.204,0.334,0.316,0.302,0.166,0.100,west,4.6,No
2018/03/02,22:50,0.330,0.202,0.333,0.317,0.301,0.167,0.100,west,5.3,No
2018/03/02,23:00,0.329,0.204,0.334,0.316,0.303,0.167,0.100,west,5.8,No
2018/03/02,23:10,0.329,0.205,0.334,0.317,0.303,0.167,0.101,west-northwest,5.3,No
2018/03/02,23:20,0.329,0.204,0.333,0.317,0.301,0.166,0.100,west,4.7,No
2018/03/02,23:30,0.329,0.204,0.333,0.316,0.302,0.167,0.100,west,4.6,No
2018/03/02,23:40,0.328,0.203,0.333,0.316,0.302,0.167,0.100,west-northwest,3.9,No
2018/03/02,23:50,0.329,0.204,0.333,0.316,0.302,0.167,0.101,west-northwest,6.7,No
